CAPE
0 0 0 0 0 0 0 0 0 0 0 0 0 0 0 0 0 0 0 0 0 0 0 0 0 0 0 0 0 0 0 0 0 0 0 0 0 0 0 0 0 0 0 0
0 0 0 0 0 0 0 0 0 0 0 0 0 0 0 0 0 0 0 0 0 0 0 0 0 0 0 0 0 0 0 0 0 0 0 0 0 0 0 4 0 0 0 1
0 0 0 0 0 0 0 0 0 0 0 0 0 0 0 0 0 0 0 0 0 0 0 0 0 0 0 0 0 0 0 0 0 0 0 0 0 0 0 19 26 7 2 34
0 0 0 0 0 0 0 0 0 0 0 0 0 0 0 0 0 0 0 0 0 0 0 0 0 0 0 0 0 0 0 0 0 0 0 0 0 0 0 21 29 12 1 4
0 0 0 0 0 0 0 0 0 0 0 0 0 0 0 0 0 0 0 0 0 0 0 0 0 0 0 0 0 0 0 0 0 0 0 0 0 8 14 26 45 0 0 0
0 1 1 0 0 0 0 0 0 0 0 0 0 0 0 0 0 0 0 0 0 0 0 0 0 0 0 0 0 0 0 0 0 0 0 0 0 18 31 13 3 0 0 5
0 0 0 0 0 0 0 0 0 0 0 0 0 0 0 0 0 0 0 0 0 0 0 0 0 0 0 0 0 0 0 0 0 0 0 0 0 28 9 0 9 2 0 1
0 0 0 0 1 0 0 0 0 0 0 0 0 0 0 0 0 0 0 0 0 0 0 0 0 0 0 0 0 0 0 0 0 0 0 0 0 13 1 0 215 213 70 155
1 0 0 0 2 0 0 0 0 0 0 0 0 0 0 0 0 0 0 0 0 0 0 0 0 0 0 0 0 0 0 0 0 0 0 0 0 0 0 0 177 353 478 480
2 0 1 1 0 0 0 0 0 0 0 0 0 0 0 0 0 0 0 0 0 0 0 0 0 0 0 0 0 35 19 18 11 9 17 7 0 0 0 6 107 5 14 189
1 2 1 1 1 0 0 0 0 0 0 0 0 0 0 0 0 0 0 0 0 0 0 0 0 0 0 0 0 3 2 11 28 16 0 0 0 0 26 69 16 0 0 3
1 1 1 1 0 0 0 0 0 0 0 0 0 0 0 0 0 0 0 0 0 0 0 0 0 0 0 0 0 0 10 11 37 15 6 0 0 0 0 0 0 0 0 0
1 0 0 0 0 0 1 0 0 0 0 0 0 0 0 0 0 0 0 0 0 0 0 0 0 0 0 0 0 0 0 0 0 1 0 0 0 0 0 0 0 0 0 0
0 0 0 0 0 0 2 0 0 0 0 0 0 0 0 0 0 0 0 0 0 0 0 0 0 0 0 0 0 0 0 0 0 0 0 0 0 0 0 0 0 0 0 0
1 0 0 0 0 0 0 0 0 0 0 0 0 0 0 0 0 0 0 0 0 0 0 0 0 0 0 0 0 0 0 0 0 0 0 0 0 0 0 0 0 0 0 40
0 0 0 0 0 0 0 0 0 0 0 0 0 0 0 0 0 0 0 0 0 0 0 0 0 0 0 0 0 0 0 0 0 0 0 0 0 0 0 0 0 6 85 497
0 0 0 0 0 0 0 0 0 0 0 0 0 0 0 0 0 0 0 0 0 0 0 0 0 0 0 0 0 0 1 0 0 0 0 0 0 0 0 0 0 31 144 447
0 0 0 0 0 0 0 0 0 0 0 0 0 0 0 0 0 0 0 0 0 0 0 0 0 0 0 0 0 27 4 0 0 0 0 0 0 0 0 0 8 68 312 371
0 0 0 0 0 0 0 0 0 0 0 0 0 0 2 12 8 18 14 20 7 2 0 0 0 0 0 11 33 11 0 0 0 0 0 0 0 0 0 0 0 72 285 164
0 0 0 0 0 0 0 0 0 0 0 0 0 0 0 0 3 4 2 3 0 0 0 2 8 3 47 24 7 0 0 0 0 0 0 0 0 0 0 0 0 48 380 135
0 0 0 0 0 0 0 1 2 3 3 0 0 0 0 2 22 17 33 21 21 13 6 9 0 33 46 14 0 0 0 0 0 0 0 0 0 0 0 0 0 36 121 345
0 0 0 0 0 0 1 2 4 9 14 41 41 5 0 64 26 20 45 16 23 20 49 42 59 80 36 7 0 0 0 0 0 0 0 0 0 0 3 33 24 163 165 367
0 0 0 3 0 0 2 0 3 21 37 54 61 59 73 51 29 48 52 56 21 26 37 27 63 137 42 5 0 0 0 0 0 0 0 0 0 0 7 18 143 229 211 381
5 12 5 2 5 6 2 29 33 66 70 39 6 55 56 108 86 117 23 60 40 38 9 22 132 168 38 4 0 0 0 0 0 0 0 0 0 5 0 0 27 93 217 341
8 21 0 0 3 13 15 17 16 43 3 5 0 15 18 19 48 77 60 42 12 40 20 70 275 125 104 29 0 0 0 0 0 0 2 10 5 9 13 41 110 132 235 384
0 0 1 0 1 14 2 21 38 32 22 18 29 10 1 29 17 38 47 74 39 45 73 218 142 197 171 30 0 0 0 0 0 2 2 3 13 21 47 75 143 62 214 357
6 0 0 0 0 0 5 1 12 1 1 8 11 0 0 0 36 57 67 80 34 112 219 137 117 91 38 12 0 0 0 0 11 13 23 11 25 24 70 179 74 13 186 293
CIN
-0 -0 -0 -0 -0 -0 -0 -0 -0 -0 -0 -0 -0 -0 -0 -0 -0 -0 -0 -0 -0 -0 -0 -0 -0 -0 -0 -0 -0 -0 -0 -0 -0 -0 -0 -0 -0 -0 -0 -0 -0 -0 -0 -0
-0 -0 -0 -0 -0 -0 -0 -0 -0 -0 -0 -0 -0 -0 -0 -0 -0 -0 -0 -0 -0 -0 -0 -0 -0 -0 -0 -0 -0 -0 -0 -0 -0 -0 -0 -0 -0 -0 -0 -16 -0 -0 -0 -19
-0 -0 -0 -0 -0 -0 -0 -0 -0 -0 -0 -0 -0 -0 -0 -0 -0 -0 -0 -0 -0 -0 -0 -0 -0 -0 -0 -0 -0 -0 -0 -0 -0 -0 -0 -0 -0 -0 -4 -36 -28 -32 -37 -101
-0 -0 -0 -0 -0 -0 -0 -0 -0 -0 -0 -0 -0 -0 -0 -0 -0 -0 -0 -0 -0 -0 -0 -0 -0 -0 -0 -0 -0 -0 -0 -0 -0 -0 -0 -0 -0 -0 -0 -19 -23 -31 -23 -80
-0 -0 -0 -0 -0 -0 -0 -0 -0 -0 -0 -0 -0 -0 -0 -0 -0 -0 -0 -0 -0 -0 -0 -0 -0 -0 -0 -0 -0 -0 -0 -0 -0 -0 -0 -0 -0 -60 -40 -22 -62 -2 -0 -95
-0 -0 -0 -0 -0 -0 -0 -0 -0 -0 -0 -0 -0 -0 -0 -0 -0 -0 -0 -0 -0 -0 -0 -0 -0 -0 -0 -0 -0 -0 -0 -0 -0 -0 -0 -0 -0 -35 -47 -124 -140 -0 -0 -56
-0 -0 -0 -0 -0 -0 -0 -0 -0 -0 -0 -0 -0 -0 -0 -0 -0 -0 -0 -0 -0 -0 -0 -0 -0 -0 -0 -0 -0 -0 -0 -0 -0 -0 -0 -0 -0 -48 -45 -0 -119 -66 -0 -75
-1 -0 -0 -0 -0 -0 -0 -0 -0 -0 -0 -0 -0 -0 -0 -0 -0 -0 -0 -0 -0 -0 -0 -0 -0 -0 -0 -0 -0 -0 -0 -0 -0 -0 -0 -0 -0 -56 -9 -0 -56 -100 -149 -156
-0 -0 -1 -0 -0 -0 -0 -0 -0 -0 -0 -0 -0 -0 -0 -0 -0 -0 -0 -0 -0 -0 -0 -0 -0 -0 -0 -0 -0 -0 -0 -0 -0 -0 -0 -0 -0 -0 -0 -0 -82 -117 -82 -110
-0 -0 -0 -0 -0 -0 -0 -0 -0 -0 -0 -0 -0 -0 -0 -0 -0 -0 -0 -0 -0 -0 -0 -0 -0 -0 -0 -0 -0 -3 -5 -2 -11 -2 -4 -38 -0 -0 -0 -20 -114 -219 -77 -259
-0 -0 -0 -0 -0 -0 -0 -0 -0 -0 -0 -0 -0 -0 -0 -0 -0 -0 -0 -0 -0 -0 -0 -0 -0 -0 -0 -0 -0 -28 -10 -16 -10 -20 -0 -0 -0 -0 -69 -224 -87 -0 -0 -120
-0 -0 -0 -0 -0 -0 -0 -0 -0 -0 -0 -0 -0 -0 -0 -0 -0 -0 -0 -0 -0 -0 -0 -0 -0 -0 -0 -0 -0 -0 -26 -50 -42 -65 -57 -0 -0 -0 -0 -0 -0 -0 -0 -0
-0 -0 -0 -0 -0 -0 -0 -0 -0 -0 -0 -0 -0 -0 -0 -0 -0 -0 -0 -0 -0 -0 -0 -0 -0 -0 -0 -0 -0 -0 -0 -0 -0 -3 -0 -0 -0 -0 -0 -0 -0 -0 -0 -0
-0 -0 -0 -0 -0 -0 -0 -0 -0 -0 -0 -0 -0 -0 -0 -0 -0 -0 -0 -0 -0 -0 -0 -0 -0 -0 -0 -0 -0 -0 -0 -0 -0 -0 -0 -0 -0 -0 -0 -0 -0 -0 -0 -0
-0 -0 -0 -0 -0 -0 -0 -0 -0 -0 -0 -0 -0 -0 -0 -0 -0 -0 -0 -0 -0 -0 -0 -0 -0 -0 -0 -0 -0 -0 -0 -0 -0 -0 -0 -0 -0 -0 -0 -0 -0 -0 -0 -65
-0 -0 -0 -0 -0 -0 -0 -0 -0 -0 -4 -0 -0 -0 -0 -0 -0 -0 -0 -0 -0 -0 -0 -0 -0 -0 -0 -0 -0 -0 -0 -0 -0 -0 -0 -0 -0 -0 -0 -0 -0 -17 -46 -31
-0 -0 -0 -0 -0 -0 -0 -0 -0 -0 -0 -0 -0 -0 -0 -0 -0 -0 -0 -0 -0 -0 -0 -0 -0 -0 -0 -0 -0 -0 -7 -0 -0 -0 -0 -0 -0 -0 -0 -0 -0 -67 -34 -103
-0 -0 -0 -0 -0 -0 -0 -0 -0 -0 -0 -0 -0 -0 -0 -0 -0 -0 -0 -0 -0 -0 -0 -0 -0 -0 -0 -0 -0 -21 -38 -0 -0 -0 -0 -0 -0 -0 -0 -0 -107 -71 -28 -45
-0 -0 -0 -0 -0 -0 -0 -0 -0 -0 -0 -0 -0 -0 -1 -5 -9 -9 -10 -9 -5 -5 -0 -0 -0 -0 -0 -5 -23 -55 -0 -0 -0 -0 -0 -0 -0 -0 -0 -0 -0 -67 -18 -41
-0 -0 -0 -0 -0 -0 -0 -0 -0 -0 -0 -0 -0 -0 -0 -0 -10 -4 -6 -6 -0 -0 -0 -8 -6 -7 -8 -20 -40 -0 -0 -0 -0 -0 -0 -0 -0 -0 -0 -0 -0 -74 -9 -60
-0 -0 -0 -0 -0 -0 -0 -0 -6 -6 -2 -0 -0 -0 -0 -3 -16 -27 -24 -12 -6 -3 -1 -3 -0 -2 -36 -57 -0 -0 -0 -0 -0 -0 -0 -0 -0 -0 -1 -0 -0 -66 -60 -22
-0 -0 -0 -0 -0 -0 -1 -3 -1 -2 -1 -5 -19 -14 -0 -9 -25 -16 -17 -15 -8 -4 -5 -5 -4 -33 -42 -58 -0 -0 -0 -0 -0 -0 -0 -0 -0 -0 -8 -49 -52 -16 -24 -25
-0 -0 -0 -3 -0 -0 -0 -0 -9 -4 -8 -22 -13 -6 -6 -4 -34 -5 -4 -9 -2 -10 -6 -4 -25 -37 -64 -47 -0 -0 -0 -0 -0 -0 -0 -0 -0 -0 -8 -11 -12 -12 -13 -42
-0 -1 -3 -4 -3 -11 -0 -4 -0 -0 -24 -32 -46 -23 -10 -7 -8 -5 -5 -6 -8 -2 -1 -7 -42 -40 -85 -89 -0 -0 -0 -0 -0 -0 -0 -0 -0 -13 -0 -0 -16 -16 -10 -17
-0 -1 -0 -0 -2 -8 -17 -8 -5 -4 -46 -42 -0 -24 -24 -28 -11 -6 -9 -7 -11 -3 -5 -29 -41 -49 -49 -59 -0 -0 -0 -0 -0 -0 -0 -56 -11 -16 -10 -24 -31 -41 -21 -9
-0 -0 -0 -0 -5 -4 -6 -5 -2 -18 -30 -34 -14 -9 -6 -18 -8 -5 -15 -5 -4 -16 -17 -30 -37 -33 -28 -25 -0 -0 -0 -0 -0 -1 -3 -6 -22 -47 -45 -21 -44 -95 -58 -13
-1 -0 -0 -0 -0 -0 -8 -2 -7 -56 -3 -11 -3 -0 -0 -2 -12 -7 -6 -4 -40 -11 -22 -39 -42 -35 -35 -33 -0 -0 -0 -0 -51 -34 -29 -11 -52 -56 -20 -12 -72 -137 -40 -16
Wind_Speed
35 36 36 36 36 37 25 22 22 9 7 19 23 29 27 26 36 35 26 22 29 29 28 25 23 23 20 26 23 18 17 21 27 20 19 23 23 24 22 21 24 24 27 27
34 35 35 34 34 31 26 23 22 12 12 27 29 30 32 33 36 34 30 26 22 27 31 29 27 28 26 27 23 19 21 21 28 29 23 17 24 26 26 29 25 23 28 24
34 34 34 34 33 31 22 20 20 18 21 28 30 31 32 31 25 30 28 26 28 29 29 28 28 31 29 30 28 21 22 24 25 29 28 30 32 32 29 26 26 21 18 25
33 33 34 34 33 32 16 17 19 19 21 24 25 28 28 32 30 26 22 27 28 30 32 31 32 32 32 36 32 24 21 26 27 34 37 38 34 34 33 29 31 27 33 30
32 32 32 32 32 29 15 20 21 24 27 27 27 22 26 31 31 28 24 22 22 28 28 28 30 28 27 26 29 30 27 29 26 29 30 31 38 36 36 35 30 30 29 30
32 32 32 31 30 25 19 21 23 23 25 24 25 25 27 28 26 30 27 23 20 21 20 24 28 30 31 32 32 33 31 29 28 28 29 32 29 30 29 19 23 25 26 25
31 31 30 29 28 25 22 22 25 22 27 27 28 31 28 24 19 21 21 22 23 20 20 26 31 33 35 36 38 32 33 33 28 31 31 36 27 24 25 28 26 29 26 24
30 30 29 28 27 26 23 22 21 22 26 26 28 27 27 24 21 22 26 25 23 24 24 28 30 33 31 29 30 22 24 30 30 29 27 31 31 23 24 25 25 30 27 25
29 29 29 27 27 27 24 22 22 22 23 18 27 29 26 23 26 27 27 29 27 26 21 24 29 28 29 23 23 16 16 14 18 23 26 27 21 27 28 29 24 31 29 31
28 28 27 26 26 26 24 21 22 22 25 26 25 23 26 25 25 23 21 23 15 14 22 27 30 30 28 29 26 20 20 21 21 20 21 19 25 28 28 26 25 31 32 30
28 27 26 26 25 25 24 21 23 24 24 33 26 27 27 27 24 23 26 24 20 23 24 24 26 26 27 27 22 22 21 20 19 20 21 24 29 27 25 22 25 29 32 34
28 27 26 25 25 24 23 20 24 25 22 23 31 35 35 32 30 27 22 22 23 21 20 20 21 22 20 22 20 22 19 18 18 20 18 17 21 20 23 27 31 34 37 39
28 27 26 26 26 25 23 24 24 24 22 29 21 23 25 8 10 22 23 21 20 19 18 20 19 19 21 21 21 21 19 23 19 16 19 18 20 24 29 33 38 36 36 41
28 28 27 27 26 26 25 22 24 22 22 19 16 19 18 14 18 11 18 26 27 24 23 22 22 24 24 26 24 23 25 27 21 18 24 20 26 30 34 37 36 38 40 38
29 28 28 28 28 27 27 22 18 8 18 21 27 30 27 9 14 12 16 20 23 23 24 23 25 25 24 22 21 20 22 23 21 20 23 25 32 36 37 39 40 42 38 36
30 29 30 29 28 25 21 17 14 18 19 20 22 24 24 10 11 12 15 17 21 22 23 24 22 20 19 21 21 23 22 19 20 23 27 29 31 31 34 36 38 40 35 31
30 29 29 29 25 18 15 17 17 21 21 18 22 21 10 8 11 14 14 14 18 20 22 24 26 26 21 21 23 21 18 20 22 25 29 32 32 35 34 34 36 35 33 27
26 28 28 26 19 15 19 17 11 15 18 18 20 19 16 10 15 16 13 12 12 18 22 22 23 23 20 21 17 14 17 20 23 27 27 28 31 31 33 35 36 36 32 27
26 25 24 15 13 14 15 16 15 15 16 16 18 19 19 18 21 18 17 18 21 21 16 15 16 17 19 16 12 14 18 20 24 27 26 28 30 33 32 33 34 35 35 32
26 18 15 15 15 15 16 15 13 12 11 11 16 18 20 22 22 18 18 19 19 21 20 16 14 15 16 9 12 14 18 21 24 25 26 29 31 32 31 33 34 35 34 29
22 21 19 22 18 16 12 14 12 10 14 11 13 7 11 22 20 19 18 20 20 21 20 16 15 13 9 10 13 15 19 22 24 27 29 29 28 31 33 34 36 36 36 33
27 21 23 17 15 13 15 15 13 10 14 11 13 12 5 13 18 20 20 20 20 19 18 16 17 12 11 13 16 19 22 25 28 28 29 29 28 30 34 32 34 34 33 29
19 16 16 14 14 16 15 14 13 13 18 18 16 12 14 11 14 15 16 18 18 18 19 18 15 11 13 16 19 23 25 27 29 30 29 31 26 29 30 32 32 32 31 20
19 17 19 16 13 14 12 21 16 16 17 17 20 20 12 14 14 12 14 17 18 20 20 18 10 12 15 17 20 23 27 27 28 28 28 28 29 28 28 28 28 30 27 16
18 17 17 14 10 22 22 19 21 17 14 14 16 21 11 16 17 14 12 15 16 16 15 12 9 11 14 19 21 23 26 27 28 27 27 28 29 28 27 27 25 25 23 15
17 16 18 19 24 23 22 20 15 21 17 18 18 17 18 16 15 14 12 14 14 12 13 9 9 13 16 19 20 23 24 25 27 27 26 27 26 24 23 21 21 23 22 12
16 17 15 15 18 18 20 21 18 17 18 19 19 18 14 16 17 13 12 18 17 11 10 10 11 13 16 19 20 21 24 25 27 26 25 23 22 21 20 18 21 22 18 7
Wind_Direction
322 321 320 320 321 318 311 289 275 272 283 274 273 267 271 275 271 277 293 294 283 286 293 298 304 302 305 323 326 324 306 306 305 293 304 308 307 307 307 302 307 307 307 312
321 320 319 319 322 327 306 285 276 281 276 274 272 273 271 270 269 274 282 289 296 285 285 290 295 296 296 310 317 318 317 309 309 311 311 312 313 314 319 312 312 300 310 316
320 319 318 317 316 316 306 285 277 275 272 278 273 274 277 278 279 274 285 294 292 293 289 291 291 294 289 292 309 324 315 305 300 300 304 307 311 311 315 315 311 318 310 322
319 319 319 317 315 309 309 279 276 294 278 281 281 273 276 279 284 280 284 286 287 288 286 289 289 292 292 281 292 309 312 302 301 296 295 294 300 303 307 307 300 299 296 308
317 318 320 320 319 310 303 283 284 284 279 286 290 280 277 279 281 289 288 280 290 282 287 291 294 296 297 298 296 302 306 295 296 299 298 297 291 295 298 304 312 306 304 298
316 318 321 321 325 321 295 291 290 282 275 280 289 289 285 286 283 281 289 302 283 303 298 301 301 299 296 296 296 293 296 299 302 298 302 302 302 303 308 321 318 318 315 313
316 316 318 320 323 328 303 290 289 284 274 277 282 293 292 283 301 290 287 310 293 300 315 309 303 295 290 288 286 288 287 288 293 294 299 291 305 319 316 308 309 309 313 310
314 313 314 315 316 317 309 295 293 285 276 278 284 290 294 296 303 298 289 292 302 305 306 301 298 292 290 290 285 289 286 286 288 290 292 297 299 311 318 320 331 327 322 320
310 313 314 312 313 315 310 286 291 289 281 279 287 285 294 295 296 292 290 286 287 290 302 299 291 288 288 296 310 294 292 289 287 290 291 295 310 313 317 314 312 328 338 329
309 308 309 307 309 313 309 288 293 295 282 281 292 290 287 293 295 294 303 298 308 314 295 287 279 280 287 287 300 317 302 305 298 289 297 308 316 317 318 311 312 319 323 330
308 304 302 303 305 310 312 273 272 292 291 274 286 289 288 287 289 292 294 293 297 294 292 287 286 288 288 294 304 312 311 309 306 307 303 295 321 323 319 318 321 322 324 322
308 304 301 300 302 305 307 305 295 292 301 294 272 268 265 273 274 284 290 290 289 297 295 300 295 295 303 305 299 323 315 321 315 316 313 331 340 342 334 325 321 320 319 318
303 301 297 296 297 301 311 302 293 304 309 289 297 288 257 170 298 282 283 290 297 302 306 297 298 298 304 302 298 306 318 327 320 316 329 334 339 337 333 329 321 320 321 317
298 299 296 293 293 294 301 316 294 307 309 312 319 317 311 322 297 309 290 278 283 289 292 292 290 287 289 293 301 306 307 310 315 319 321 322 326 333 330 324 324 324 322 322
295 293 293 292 290 290 290 311 323 9 324 312 288 279 282 323 318 314 302 292 284 286 280 283 280 285 293 297 306 309 326 320 321 325 333 328 320 320 324 326 323 322 324 324
294 291 291 292 295 303 323 336 352 321 316 321 310 294 286 323 334 322 313 303 288 284 281 281 286 302 302 298 300 306 323 337 340 329 328 328 329 333 331 328 327 327 333 335
289 289 290 296 311 330 337 333 332 314 318 325 313 310 326 334 328 321 310 302 294 288 284 281 282 286 302 299 300 310 328 339 337 335 331 328 332 329 330 332 331 334 340 347
281 283 285 301 333 337 327 334 344 338 326 323 316 310 310 332 320 313 306 304 301 295 286 291 292 295 304 299 310 326 332 336 338 336 337 337 333 334 333 332 331 333 343 347
279 276 291 5 5 357 346 344 338 335 328 334 315 304 310 315 299 315 299 301 295 299 296 301 309 302 299 315 326 332 337 337 337 338 339 337 335 328 334 336 333 334 337 340
282 3 6 0 360 0 352 351 359 360 351 340 321 309 300 303 302 306 306 303 298 295 296 302 296 299 316 342 347 347 345 342 340 337 337 335 331 328 335 334 334 332 338 350
344 339 338 328 347 354 4 350 355 3 347 347 339 320 300 302 299 302 306 302 301 298 297 303 308 306 323 347 344 349 343 338 336 331 332 333 334 331 330 331 329 329 329 333
319 332 324 348 353 354 343 344 354 360 350 353 341 338 323 328 310 299 301 296 301 298 311 305 301 319 336 334 340 341 336 333 329 331 330 334 335 332 329 333 333 332 329 332
349 354 348 353 352 337 342 345 353 356 342 338 334 335 329 342 326 312 305 299 296 307 301 302 313 322 325 330 335 330 331 329 328 329 334 332 337 334 334 332 334 333 329 337
342 342 332 338 346 346 346 332 346 338 337 333 317 310 334 337 324 328 320 305 304 300 298 301 317 322 327 335 333 332 331 331 329 331 335 338 337 337 337 340 339 335 331 333
337 340 332 337 348 331 327 333 336 339 347 339 313 295 335 325 313 322 324 318 311 314 317 321 336 339 339 332 334 337 334 331 332 335 337 337 337 338 336 339 343 339 329 333
331 327 322 326 317 324 331 336 334 323 327 327 290 312 322 315 317 320 320 320 323 333 332 353 2 345 340 340 344 341 340 337 337 341 343 344 342 342 343 344 338 332 318 318
326 324 329 324 321 320 326 326 333 328 321 311 305 309 315 328 307 319 329 314 322 345 8 17 3 354 350 348 347 347 345 345 344 346 348 353 353 357 355 354 334 325 310 321